Terminal Aerodrome Forecast
Issued by NWS Upton, NY

Home | Current Version | Previous Version | Text Only | Print | Product List | Glossary On
Versions: 1 2 3 4 5 6 7 8 9 10 11 12 13 14 15 16 17 18 19 20 21 22 23 24
000
FTUS41 KOKX 291100
TAFBDR
TAF
KBDR 291133Z 2912/3012 30009KT P6SM FEW040
     FM291600 25008KT P6SM SCT070
     FM291800 22008KT P6SM SCT070
     FM300300 VRB03KT P6SM SCT050=

USA.gov is the U.S. government's official web portal to all federal, state and local government web resources and services.